Location: D�derode
(51.8092°N, 10.1065°E)
Time: 06:05:50
(UTC+00:00)

USA 281 - Pass Details

Date: 01 December 2020
Orbit: 1074 x 1084 km, 106.0° (Epoch: 22 January)

Event Time Altitude Azimuth Distance (km) Brightness Sun altitude
Rises 17:20:06 0° 140° (SE) 3,873 5.9 -18.8°
Reaches altitude 10° 17:22:37 10° 138° (SE) 2,919 5.2 -19.2°
Maximum altitude 17:29:07 69° 57° (ENE) 1,152 3.1 -20.1°
Drops below altitude 10° 17:35:39 10° 336° (NNW) 2,928 5.7 -21.1°
Sets 17:38:10 0° 334° (NNW) 3,886 6.4 -21.5°
